Regional Weather Roundup
Issued by NWS

Home | Current Version | Previous Version | Graphics & Text | Print | Product List | Glossary On
Versions: 1 2 3 4 5 6 7 8 9 10 11 12 13 14 15 16 17 18 19 20 21 22 23 24 25 26 27 28 29 30 31 32 33 34 35 36 37 38 39 40 41 42 43 44 45 46 47 48 49 50
000
ASUS43 KLOT 242303
RWRIL

ILLINOIS REGIONAL WEATHER ROUNDUP
NATIONAL WEATHER SERVICE CHICAGO/ROMEOVILLE IL
600 PM CDT TUE MAY 24 2016

NOTE: "FAIR" INDICATES FEW OR NO CLOUDS BELOW 12,000 FEET WITH NO
SIGNIFICANT WEATHER AND/OR OBSTRUCTIONS TO VISIBILITY.

* THESE STATIONS ARE NOT UNDER NWS QUALITY CONTROL. THEY ALSO MAY NOT
  REPORT WEATHER SUCH AS PRECIPITATION OR FOG.

ILZ001-002-007-009-015-016-024-250000-
NORTHWEST ILLINOIS

CITY           SKY/WX    TMP DP  RH WIND       PRES   REMARKS
MOLINE         CLOUDY    87  57  35 SW9       29.88F HX  86
STERLING*      MOSUNNY   86  56  35 VRB3      29.91F HX  85
$$

ILZ003-004-008-010-011-017-018-250000-
NORTH CENTRAL ILLINOIS

CITY           SKY/WX    TMP DP  RH WIND       PRES   REMARKS
ROCKFORD       PTSUNNY   86  53  32 SW15      29.91F HX  84
FREEPORT*      PTSUNNY   82  57  41 SW8G16    29.92F HX  82
ROCHELLE*      MOSUNNY   86  54  32 W9G17     29.92S HX  84
$$

ILZ005-006-012>014-019>023-250000-
NORTHEAST ILLINOIS

CITY           SKY/WX    TMP DP  RH WIND       PRES   REMARKS
CHICAGO-OHARE  MOSUNNY   85  47  26 S14       29.91F HX  82
CHICAGO-MIDWAY MOSUNNY   88  48  25 SW13      29.92F HX  85
AURORA         SUNNY     86  53  32 S14       29.92F HX  84
LANSING*       SUNNY     85  49  28 SW12G20   29.94S HX  83
WAUKEGAN       SUNNY     83  51  33 SW9       29.91F HX  81
DUPAGE AIRPORT SUNNY     85  51  31 S8        29.91F HX  83
WHEELING       SUNNY     87  47  24 SW8       29.92F HX  84
NORTHERLY ISL    N/A     86  41  20 SW15        N/A  HX  83
NORTHERLY ISL    N/A     86  41  20 SW15        N/A  HX  83
$$

LMZ740>746-250000-
SOUTHERN LAKE MICHIGAN

STATION/POSITION SKY/WX   TEMP    WIND        PRES    VSBY  WAVE
                          AIR SEA DIR/SP/G                  HT/PER
                          (F)     (DEG/KT/KT) (MB)    (MI)  (FT/S)
SOUTHERN BUOY              58 49  130/ 10/ 10 1013.8          1
WILMETTE HARBOR            62 57  120/  6/ 10   N/A           1
HARRISON CRIB              86     220/ 22/ 25   N/A
BURNHAM HARBOR             86     190/  8/ 15   N/A
CALUMET HARBOR             86                   N/A
BURNS HARBOR               84     210/ 13/ 19 1014.2F
MICHIGAN CITY              83     190/ 12/ 15   N/A
MICHIGAN CITY 6N           70 60  230/  6/  8   N/A           1
ST. JOSEPH                 72 69   70/  4/  4   N/A           0
$$

ILZ025>027-034>036-040-047-049-050-058-095>099-250000-
WEST-CENTRAL ILLINOIS

CITY           SKY/WX    TMP DP  RH WIND       PRES   REMARKS
QUINCY         CLOUDY    77  63  61 S7        29.95R
MACOMB*        PTSUNNY   82  61  48 S12       29.95R HX  83
PITTSFIELD*    CLOUDY    78  66  64 S7        29.96R HX  80
$$

ILZ028>032-037-038-041>044-048-051>054-059>061-250000-
CENTRAL ILLINOIS

CITY           SKY/WX    TMP DP  RH WIND       PRES   REMARKS
BLOOMINGTON    MOSUNNY   82  60  47 SW17      29.97S HX  82
DECATUR        MOSUNNY   80  61  52 S16       29.97F HX  81
PEORIA         MOSUNNY   82  60  47 S13       29.93R HX  82
SPRINGFIELD    PTSUNNY   82  61  48 S13       29.95R HX  83
TAYLORVILLE    NOT AVBL
$$

ILZ033-039-045-046-055>057-062-063-250000-
EAST-CENTRAL ILLINOIS

CITY           SKY/WX    TMP DP  RH WIND       PRES   REMARKS
CHAMPAIGN      MOSUNNY   82  55  39 S16       29.98S HX  81
MATTOON        SUNNY     79  58  48 S13G21    29.99F HX  80
$$

ILZ079-100>102-250000-
SOUTHWEST ILLINOIS

CITY           SKY/WX    TMP DP  RH WIND       PRES   REMARKS
ALTON          CLOUDY    73  64  73 S14       29.95F
CAHOKIA*       CLOUDY    72  65  78 S8        29.95F
SPARTA*        LGT RAIN  68  64  86 S16G26    29.98F
$$

ILZ064>066-069>071-074>076-080>082-084>086-088>090-092>094-250000-
SOUTH-CENTRAL ILLINOIS

CITY           SKY/WX    TMP DP  RH WIND       PRES   REMARKS
CARBONDALE     CLOUDY    76  63  64 SW14G22   30.03S
MARION         CLOUDY    79  64  61 SW14      30.05R HX  81
MT. VERNON     PTSUNNY   79  63  57 SW10G18   30.01F HX  80
SALEM*         PTSUNNY   80  65  58 SW9       29.99F HX  82
$$

ILZ067-068-072-073-078-083-087-091-250000-
SOUTHEAST ILLINOIS

CITY           SKY/WX    TMP DP  RH WIND       PRES   REMARKS
LAWRENCEVILLE  MOSUNNY   81  56  42 SW15      30.03F HX  81
FLORA*         PTSUNNY   79  62  54 S10       30.01F HX  81
HARRISBURG*    PTSUNNY   80  64  57 SW12G17   30.03S HX  81
ROBINSON*      MOSUNNY   78  59  50 S9G18     30.03S
$$

ABBREVIATIONS USED IN REMARKS
   TC - TEMPERATURE IN CELSIUS
  WCI - WIND CHILL INDEX
   HX - HEAT INDEX
  VSB - VISIBILITY
$$





USA.gov is the U.S. government's official web portal to all federal, state and local government web resources and services.